This is the latest recevied weather packets stored in our database for station/object JS2WAD-13. If no packets are shown the sender has not sent any weather packets the latest 10 day(s).
| Time | Temp. | Humidity | Pressure | Rain* | Wind** | Luminosity | Snow |
|---|---|---|---|---|---|---|---|
| 1777764391 | 19.44° C | 58% | 903 hPa | 0 mm | - | 95 W/m² | - |
| 1777764091 | 19.44° C | 59% | 902.6 hPa | 0 mm | - | 100 W/m² | - |
| 1777763791 | 19.44° C | 58% | 903.2 hPa | 0 mm | - | 95 W/m² | - |
| 1777763491 | 19.44° C | 58% | 903.6 hPa | 0 mm | - | 90 W/m² | - |
| 1777763191 | 19.44° C | 58% | 903.7 hPa | 0 mm | - | 118 W/m² | - |
| 1777762891 | 19.44° C | 58% | 903.7 hPa | 0 mm | - | 107 W/m² | - |
| 1777762591 | 19.44° C | 60% | 903.5 hPa | 0 mm | - | 104 W/m² | - |
| 1777762291 | 18.89° C | 59% | 903.6 hPa | 0 mm | - | 100 W/m² | - |
| 1777761991 | 18.89° C | 59% | 903.8 hPa | 0 mm | - | 79 W/m² | - |
| 1777761691 | 18.89° C | 59% | 903.7 hPa | 0 mm | - | 65 W/m² | - |
| 1777761391 | 18.89° C | 59% | 903.9 hPa | 0 mm | - | 63 W/m² | - |
| 1777761091 | 18.89° C | 62% | 903.9 hPa | 0 mm | - | 69 W/m² | - |
| 1777760791 | 18.89° C | 60% | 903.9 hPa | 0 mm | - | 60 W/m² | - |
| 1777760491 | 18.89° C | 61% | 903.9 hPa | 0 mm | - | 56 W/m² | - |
| 1777760191 | 18.89° C | 65% | 903.7 hPa | 0 mm | - | 65 W/m² | - |
| 1777759891 | 18.89° C | 65% | 903.7 hPa | 0 mm | - | 76 W/m² | - |
| 1777759591 | 18.33° C | 63% | 903.7 hPa | 0 mm | - | 83 W/m² | - |
| 1777759291 | 18.33° C | 69% | 903.5 hPa | 0 mm | - | 76 W/m² | - |
| 1777758991 | 18.33° C | 65% | 903.3 hPa | 0 mm | - | 74 W/m² | - |
| 1777758691 | 18.33° C | 65% | 903.3 hPa | 0 mm | - | 74 W/m² | - |
| 1777758391 | 17.78° C | 68% | 903.6 hPa | 0 mm | - | 70 W/m² | - |
| 1777758091 | 17.78° C | 73% | 903.7 hPa | 0 mm | - | 56 W/m² | - |
| 1777757791 | 17.78° C | 64% | 904 hPa | 0 mm | - | 40 W/m² | - |
| 1777757491 | 17.78° C | 67% | 903.6 hPa | 0 mm | - | 30 W/m² | - |
| 1777757191 | 18.33° C | 65% | 903.7 hPa | 0 mm | - | 26 W/m² | - |
* Rain latest hour (hover to see other rain measurements)
** Current wind speed in m/s (hover to see current wind gust speed)